Weather Roundup
Issued by NWS Springfield, MO

Home | Current Version | Previous Version | Text Only | Print | Product List | Glossary On
Versions: 1 2 3 4 5 6 7 8 9 10 11 12 13 14 15 16 17 18 19 20 21 22 23 24 25 26 27 28 29 30 31 32 33 34 35 36 37 38 39 40 41 42 43 44 45 46 47 48 49 50
626
NZUS99 KSGF 240707
HRRSGF

HOURLY WEATHER
NATIONAL WEATHER SERVICE SPRINGFIELD MO
200 AM CDT THU AUG 24 2017

......SGF CWA......

CITY           SKY/WX    TMP DP  RH WIND       PRES   REMARKS
SPRINGFIELD    CLEAR     61  56  83 E3        30.06F
JOPLIN         CLEAR     63  58  83 E5        30.06S
WEST PLAINS    CLEAR     59  54  83 NE3       30.08F
ROLLA          CLEAR     60  54  80 E6        30.08F
OSAGE BEACH    CLEAR     57  56  96 CALM      30.08F
BRANSON        CLEAR     59  55  88 CALM      30.08S

......SURROUNDING SGF CWA......

CITY           SKY/WX    TMP DP  RH WIND       PRES   REMARKS
CHANUTE        CLEAR     58  55  90 CALM      30.06S
PARSONS        CLEAR     57  55  93 CALM      30.07R
COFFEYVILLE    CLEAR     59  57  93 N5        30.05R
EMPORIA        CLEAR     60  56  86 S5        30.07S
GROVE OK         N/A     61  59  94 CALM      30.05S
ROGERS AR      CLEAR     65  57  75 E8        30.06F
HARRISON AR    CLEAR     58  57  97 W3        30.07S
NEAR YELLVILLE CLEAR     63  54  72 CALM      30.03S

......KANSAS AND MISSOURI......

CITY           SKY/WX    TMP DP  RH WIND       PRES   REMARKS
KANSAS CTY INT CLEAR     62  58  86 S6        30.07S
DOWNTOWN KC    CLEAR     67  62  84 NW3       30.06S
COLUMBIA       CLEAR     61  56  83 SE3       30.07F
SEDALIA        CLEAR     61  60  97 CALM      30.08S
ST JOSEPH      CLEAR     58  58 100 CALM      30.06F
ST LOUIS       CLEAR     63  56  78 CALM      30.06F
SPIRIT OF STL  PTCLDY    57  57 100 CALM      30.05F
KIRKSVILLE     CLEAR     55  53  93 CALM      30.08S
WICHITA        CLEAR     64  55  72 SE7       30.06S
TOPEKA         CLEAR     63  62  97 CALM      30.06S
OLATHE         CLEAR     63  58  83 CALM      30.07S

......TENNESSEE......

CITY           SKY/WX    TMP DP  RH WIND       PRES   REMARKS
MEMPHIS        CLEAR     67  60  78 CALM      30.01S
NASHVILLE      CLEAR     67  59  75 N6        30.00F

......ARKANSAS.......

CITY           SKY/WX    TMP DP  RH WIND       PRES   REMARKS
FAYETTEVILLE   CLEAR     60  60 100 CALM      30.05F
FT SMITH       CLEAR     70  69  97 E6        30.01S
LITTLE ROCK    CLOUDY    71  67  87 NE7       30.01S

......OKLAHOMA.......

CITY           SKY/WX    TMP DP  RH WIND       PRES   REMARKS
TULSA          CLEAR     64  61  90 N5        30.01S
PONCA CITY     CLOUDY    60  55  83 N5        30.04S
MCALESTER      PTCLDY    73  71  93 E3        30.00S
OKLAHOMA CITY  PTCLDY    67  58  72 E5        30.03S

......IOWA............

CITY           SKY/WX    TMP DP  RH WIND       PRES   REMARKS
DES MOINES     CLOUDY    67  57  70 SE7       30.05F
QUAD CITIES    CLEAR     56  53  90 CALM      30.06

......ILLINOIS........

CITY           SKY/WX    TMP DP  RH WIND       PRES   REMARKS
QUINCY         CLEAR     60  54  80 CALM      30.07S
CHICAGO        PTCLDY    63  55  75 SW3       30.03S




USA.gov is the U.S. government's official web portal to all federal, state and local government web resources and services.